Location: Ballingbuur
(53.0000°N, 5.7667°E)
Time: 02:15:33
(UTC+00:00)

Daily predictions for brighter satellites

Satellite Brightness Start Highest point End
(mag) Time Altitude Azimuth Time Altitude Azimuth Time Altitude Azimuth
Cosmos 2263 Rocket 4.0 03:01:27 27° E 03:01:27 27° E 03:05:35 10° NE
SJ 16-02 4.2 03:08:47 14° E 03:08:50 14° E 03:11:08 10° ENE
ATLAS 3B R/B 2.9 03:30:34 63° NE 03:30:34 63° NE 03:37:38 10° ESE
Lacrosse 4 Rocket 4.3 03:38:11 11° SE 03:38:11 11° SE 03:38:24 10° SE
ALOS 3.4 03:48:14 10° NNE 03:52:42 42° E 03:53:16 40° ESE
Cosmos 2227 Rocket 3.8 03:57:13 24° N 03:57:13 24° N 03:59:47 10° NNE
Cosmos 2344 4.2 03:53:01 44° NW 03:56:44 80° NE 04:08:58 10° SE
CENTAUR R/B 3.5 04:01:35 46° SSW 04:01:35 46° SSW 04:08:41 10° SSE
USA 305 4.3 04:02:46 36° ENE 04:02:46 36° ENE 04:05:24 10° E
Cosmos 2227 4.3 04:01:36 71° SE 04:01:43 71° ESE 04:07:20 10° NE
NOSS 3-4 (A) 4.1 04:00:50 37° S 04:02:49 51° SE 04:08:56 10° NE
NOSS 3-4 (C) 4.1 04:00:54 36° S 04:02:57 50° SE 04:09:05 10° NE
ARGOS Delta rocket 4.4 03:58:37 10° NNE 04:03:47 61° E 04:04:43 51° SE
Meteor 1-31 Rocket 4.5 04:01:51 10° NNE 04:05:09 32° E 04:05:09 32° E
USA 306 4.0 04:10:52 43° ENE 04:10:52 43° ENE 04:13:50 10° E
SL-4 R/B 3.4 04:15:02 35° E 04:15:02 35° E 04:17:22 10° E
Cosmos 1782 4.1 04:16:34 37° SE 04:16:34 37° SE 04:19:17 10° SSE
Cosmos 1777 Rocket 4.4 04:16:44 52° N 04:16:44 52° N 04:20:44 10° NNE
SKYMED 2 4.0 04:14:55 10° SSE 04:19:10 58° ENE 04:19:24 57° NE
Cosmos 1680 Rocket 3.4 04:20:02 80° N 04:20:21 87° ENE 04:25:41 10° SSE
ATLAS 2AS CENTAUR R/B 3.5 04:15:31 13° SSW 04:22:32 61° SE 04:30:12 10° NE
Cosmos 2297 Rocket 3.8 04:30:30 21° NNW 04:30:30 21° NNW 04:33:34 10° NNE
ATLAS 5 CENTAUR R/B 2.7 04:31:19 42° NE 04:31:19 42° NE 04:33:00 10° NE
ATLAS CENTAUR R/B 2.0 04:32:06 47° SE 04:32:06 47° SE 04:34:58 10° SE
ADEOS 3.6 04:27:21 10° NNE 04:32:37 78° ESE 04:37:50 10° SSW
RESURS DK-1 4.4 04:29:36 10° S 04:33:10 28° ESE 04:36:45 10° NE
Lacrosse 5 2.8 04:32:03 30° SSW 04:34:05 45° SE 04:38:55 10° ENE
CRYOSAT 2 4.4 04:29:25 10° SSE 04:34:15 78° E 04:39:10 10° N
ERBS 3.9 04:38:12 31° NE 04:38:12 31° NE 04:40:07 10° ENE
CZ-2C R/B 4.3 04:33:18 10° N 04:34:19 16° N 04:34:19 16° N
Cosmos 2112 Rocket 3.9 04:38:53 54° NW 04:40:07 79° WSW 04:45:28 10° SSE
Gbstr 26 Del rocket 4.1 04:43:34 28° S 04:43:34 28° S 04:46:00 10° SE
Cosmos 1745 Rocket 4.4 04:44:18 42° NW 04:44:18 42° NW 04:49:45 10° N
Cosmos 2263 Rocket 2.1 04:43:11 52° WSW 04:44:21 65° NW 04:50:04 10° NNE
SJ 16-02 1.2 04:45:53 58° SSW 04:46:45 86° WNW 04:51:13 10° NNE
Meteor 1-26 Rocket 4.2 04:48:58 33° NNW 04:51:25 57° W 04:56:55 10° S
Cosmos 1898 Rocket 4.2 04:49:10 10° S 04:54:22 57° ESE 04:59:37 10° NNE
CZ-2C R/B 4.2 04:52:27 10° ESE 04:57:15 33° ENE 05:01:59 10° N
FENGYUN 3A 3.6 04:52:07 10° N 04:57:29 63° WNW 05:02:48 10° SSW
Cosmos 1766 Rocket 3.6 04:58:04 56° WNW 04:58:04 56° WNW 05:02:21 10° N
Cosmos 1743 Rocket 4.3 04:57:33 10° S 05:01:54 56° E 05:06:19 10° NNE
Cosmos 2082 Rocket 3.9 04:57:54 12° NNW 05:02:14 27° NE 05:07:04 10° E
Cosmos 2181 Rocket 4.0 04:56:29 10° NNW 05:02:29 51° W 05:08:23 10° SSW
Cosmos 1408 Rocket 3.4 04:59:25 10° SSW 05:03:53 82° WNW 05:08:22 10° N
USA 307 2.9 05:05:08 54° WNW 05:06:04 79° N 05:10:24 10° E
Okean 3 Rocket 4.1 05:07:16 38° NW 05:07:16 38° NW 05:10:35 10° N
COSMO-SKYMED 1 2.7 05:03:01 10° S 05:07:15 52° W 05:07:59 46° WNW
Cosmos 1709 Rocket 4.2 05:02:45 10° SW 05:08:53 48° WNW 05:15:03 10° N
Cosmos 1937 Rocket 4.1 05:06:23 10° S 05:11:26 57° ESE 05:16:32 10° NNE
Lacrosse 4 Rocket 3.7 05:14:33 12° SW 05:14:33 12° SW 05:15:10 10° SSW
USA 308 2.8 05:11:14 47° WNW 05:12:25 80° N 05:16:45 10° E
Cosmos 1833 Rocket 3.7 05:08:13 13° NNW 05:12:53 42° NE 05:18:12 10° ESE
Meteor 2-3 Rocket 3.8 05:10:27 10° SSW 05:16:04 55° WNW 05:21:48 10° N
CZ-4B R/B 3.0 05:11:38 10° NNE 05:16:11 86° WNW 05:20:37 10° SSW
CZ-4C R/B 2.4 05:11:50 10° SSW 05:16:54 70° SE 05:23:05 10° NE
Meteor 1-27 Rocket 4.2 05:11:13 10° N 05:16:57 63° ENE 05:22:45 10° SSE
MOS 1 Rocket 3.4 05:12:45 10° SSE 05:17:39 88° ENE 05:22:52 10° NNW
Cosmos 2154 Rocket 4.4 05:11:43 10° S 05:17:52 66° E 05:24:06 10° NNE
Meteor 1-10 Rocket 4.1 05:13:26 10° NNW 05:19:01 86° W 05:24:38 10° S
FALCON 9 DEB 4.2 05:18:32 23° SSW 05:20:01 37° SSE 05:23:03 10° E
Cosmos 1689 Rocket 4.3 05:17:31 10° SSW 05:18:12 15° SSW 05:18:12 15° SSW
ATLAS 3B R/B 3.1 05:17:51 27° WNW 05:21:11 46° WSW 05:27:56 10° SSE
COSMOS 2406 3.8 05:18:03 13° NNW 05:23:03 56° NE 05:28:44 10° SE
Aureole 2 Rocket 3.8 05:22:57 10° S 05:25:13 29° ESE 05:27:30 10° NE
YAOGAN 6 3.7 05:23:31 10° NNE 05:26:55 44° E 05:30:16 10° S
Cosmos 1862 3.3 05:24:32 10° S 05:28:36 85° E 05:32:42 10° NNE
Genesis I 3.6 05:25:48 10° SSW 05:29:35 63° SE 05:33:25 10° NE
deb Chang Zheng 4 3.8 05:25:48 10° N 05:29:56 45° WNW 05:34:05 10° SW
ALOS 2.9 05:25:53 10° N 05:30:01 32° WNW 05:31:45 24° W
PSLV R/B 4.0 05:31:52 10° NNE 05:35:47 72° ESE 05:39:34 10° S
Cosmos 990 Rocket 3.9 05:31:50 10° SW 05:37:03 66° WNW 05:42:20 10° NNE
Cosmos 2327 Rocket 4.4 05:31:09 10° S 05:37:15 89° ESE 05:43:23 10° N
ASTRO F (AKARI) 4.1 05:34:42 10° NNE 05:37:48 88° WNW 05:40:56 10° SSW
Cosmos 2074 Rocket 3.9 05:32:32 10° SSW 05:38:42 65° WNW 05:44:54 10° N
Meteor 1-31 Rocket 3.5 05:36:22 10° N 05:39:44 29° WNW 05:40:29 27° W
Cosmos 2227 Rocket 3.9 05:39:03 14° NW 05:40:26 15° NNW 05:43:38 10° NNE
USA 305 2.9 05:38:55 27° WNW 05:41:13 90° SW 05:45:33 10° ESE
Cosmos 405 Rocket 2.5 05:40:43 10° SSW 05:44:25 77° WNW 05:48:12 10° N
SL-24 DEB 4.3 05:40:01 10° S 05:44:47 87° W 05:49:37 10° N
Cosmos 1812 3.0 05:42:51 17° NNW 05:45:32 43° W 05:49:11 10° SSW
USA 229 DEB 4.5 05:42:20 16° NW 05:47:55 47° NNE 05:55:08 10° E
USA 229 4.5 05:42:25 15° NW 05:48:01 47° NNE 05:55:12 10° E
Cosmos 2228 Rocket 3.3 05:43:46 10° NNW 05:48:01 47° W 05:52:13 10° SSW
EO 1 Delta rocket 4.1 05:43:53 10° SSW 05:48:36 46° W 05:53:04 10° NNW
USA 306 2.9 05:47:01 23° WNW 05:49:40 86° SSW 05:53:58 10° ESE
Cosmos 1295 Rocket 4.5 05:44:07 10° S 05:50:12 88° E 05:56:21 10° N
Cosmos 1782 4.5 05:52:15 16° WSW 05:52:15 16° WSW 05:53:59 10° SW
SL-4 R/B 1.9 05:50:37 21° W 05:53:05 68° S 05:56:42 10° ESE
NOSS 3-4 (A) 3.6 05:48:19 13° WSW 05:53:43 54° NNW 06:00:14 10° NE
NOSS 3-4 (C) 3.6 05:48:24 12° WSW 05:53:51 54° NNW 06:00:22 10° NE
Cosmos 2184 Rocket 4.1 05:50:09 10° SSW 05:56:19 53° WNW 06:02:35 10° N
USA-17 4.3 05:53:03 10° SW 05:56:30 79° SE 05:59:34 10° NE
USA 234 4.5 05:50:54 10° ENE 05:57:06 44° SE 06:03:17 10° SSW
Spot 2 4.5 05:52:52 10° NNE 05:58:03 82° WNW 06:03:09 10° SSW
FALCON 9 DEB 3.3 05:56:58 13° WSW 05:59:45 62° SSE 06:02:56 10° E
Cosmos 1356 4.3 05:56:45 10° S 06:00:05 52° E 06:03:26 10° NNE
NOSS 3-1 (C) 4.4 05:54:50 13° NW 06:01:02 57° NNE 06:09:08 10° ESE
FALCON 9 DEB 3.3 05:59:52 20° W 06:02:10 69° SSW 06:05:37 10° ESE
Cosmos 1844 Rocket 2.7 05:57:04 10° SW 06:02:43 69° NW 06:08:25 10° NNE
Cosmos 1707 Rocket 3.4 06:00:46 10° NNW 06:05:07 75° W 06:09:26 10° S
MOS 1-B 4.4 06:01:05 10° NNE 06:06:57 88° ESE 06:12:47 10° SSW
ATLAS CENTAUR R/B 3.0 06:08:18 13° W 06:09:28 15° WSW 06:11:41 10° SSW
NOAA 6 4.0 06:04:59 10° NNE 06:10:08 79° WNW 06:15:15 10° SSW
COSMOS 2455 3.2 06:04:51 10° SSW 06:10:50 71° SE 06:16:52 10° NE
RESURS DK-1 2.7 06:07:03 10° WSW 06:11:03 44° NW 06:15:05 10° NNE
H-2A R/B 3.3 06:09:08 10° N 06:12:47 38° WNW 06:16:24 10° SW
OPS 8737 4.4 06:10:36 16° NW 06:12:57 66° SW 06:16:48 10° SE
ERBS 2.9 06:11:05 16° WNW 06:13:20 39° N 06:16:30 10° ENE
EP 3 3.3 06:11:51 11° SW 06:13:41 62° NW 06:15:35 10° NE
ATLAS 2AS CENTAUR R/B 3.1 06:05:55 10° WSW 06:13:46 58° NNW 06:21:22 10° NE
USA 290 3.7 06:11:02 10° NNW 06:14:07 34° NE 06:17:09 10° ESE
CZ-4B DEB 4.1 06:09:48 10° NNE 06:15:16 73° WNW 06:20:43 10° SSW
Cosmos 2297 Rocket 4.2 06:12:55 10° NNW 06:15:24 13° N 06:17:54 10° NNE
Cosmos 1437 Rocket 3.4 06:12:16 10° NNW 06:15:40 32° W 06:19:02 10° SSW
Cosmos 1500 Rocket 4.2 06:11:58 10° SW 06:15:53 33° WNW 06:19:50 10° N
Cosmos 1844 3.6 06:11:05 10° SW 06:16:37 67° NW 06:22:13 10° NNE
Lacrosse 5 1.9 06:11:52 10° WSW 06:16:57 71° NNW 06:22:02 10° ENE
Okean O Rocket 1.8 06:14:27 10° NNE 06:18:55 80° ESE 06:23:22 10° SSW
Cosmos 372 Rocket 3.9 06:15:00 10° SSW 06:20:05 81° WNW 06:25:15 10° NNE
Cosmos 1242 Rocket 2.7 06:17:09 10° N 06:20:47 76° ENE 06:24:27 10° SSE
PAYLOAD B 4.2 06:16:10 10° NNE 06:21:43 78° WNW 06:27:12 10° SSW
SMAP 3.0 06:17:55 10° NNE 06:22:37 85° WNW 06:27:16 10° SSW
Geosat 4.0 06:18:14 10° SSE 06:23:15 69° WSW 06:28:18 10° NW
SJ 16-02 2.9 06:23:06 10° W 06:26:02 17° NW 06:28:59 10° N
USA 81 4.0 06:20:57 10° S 06:26:13 78° W 06:31:31 10° N
Cosmos 2263 Rocket 3.5 06:25:07 10° W 06:29:25 21° NNW 06:33:44 10° NNE
FALCON 9 DEB 3.0 06:29:50 10° WSW 06:33:03 79° S 06:36:17 10° E
ATLAS 5 CENTAUR R/B 3.0 06:29:10 10° SSW 06:33:04 42° SE 06:37:28 10° NE
FALCON 9 DEB 3.0 06:29:54 10° WSW 06:33:07 80° S 06:36:21 10° E
Cosmos 1470 Rocket 4.3 06:30:23 10° S 06:34:42 58° E 06:39:01 10° NNE
AQUARIUS 4.1 06:31:51 10° N 06:36:21 71° WNW 06:40:50 10° SSW
Sich 1 3.3 06:32:11 10° SSW 06:36:29 48° WNW 06:40:49 10° N
Cosmos 2218 Rocket 4.1 06:30:25 10° S 06:36:41 85° E 06:42:55 10° NNE
Cosmos 1898 Rocket 4.3 06:32:01 10° WSW 06:36:47 32° NW 06:41:34 10° NNE
H-2A R/B 2.7 06:33:10 10° N 06:36:50 40° WNW 06:40:25 10° SW
Envisat 3.3 06:32:00 10° N 06:36:52 46° WNW 06:41:41 10° SW
CZ-2C R/B 2.9 06:32:04 10° S 06:37:24 51° W 06:42:38 10° NNW
Cosmos 2366 rocket 4.1 06:34:44 10° S 06:41:04 88° E 06:47:23 10° N
CORIOLIS 4.2 06:36:14 10° NNE 06:41:43 80° WNW 06:47:10 10° SSW
Cosmos 1602 4.1 06:39:15 10° S 06:43:10 71° E 06:47:06 10° NNE
Iridium 2 4.4 06:41:01 10° N 06:44:44 55° E 06:48:25 10° SSE
USA 307 3.4 06:41:50 10° WNW 06:46:04 56° SSW 06:50:17 10° SE
CZ-4B R/B 3.2 06:41:16 10° NNE 06:46:35 68° WNW 06:51:57 10° SSW
Cosmos 2082 Rocket 2.3 06:41:17 10° NNW 06:47:02 86° WSW 06:52:46 10° SSE
